www.pogodaiklimat.ru

Погода и климат >> Архив погоды >> Франция >> Перрос-Гирек


ПОГОДА в Перрос-Гиреке

  • Прогноз погоды в Перрос-Гиреке
  • Монитор погоды в Перрос-Гиреке

АРХИВ ПОГОДЫ в Перрос-Гиреке

Время (UTC), дата Ветер
(напр.,м/с)
 
Видим.   Явления Облачность Т
(С)
Тd
(С)
f
(%)
Тe
(С)
Тes
(С)
Комфортность P
(гПа)
Po
(гПа)
Тmin
(С)
Tmax
(С)
R
(мм)
R24
(мм)
S
(см)
07 11.07 З 2-3
{4}
н/о н/о +18.2 +15.4 84 +19 +19 1015.4 1008.6
08 11.07 З 2-4
{4}
н/о н/о +18.6 +15.3 81 +20 +20 1015.6 1008.8
09 11.07 З 4-4
{8}
н/о н/о +18.8 +14.3 75 +20 +20 1015.5 1008.7
10 11.07 З 3-4
{4}
н/о н/о +19.8 +14.6 72 +22 +22 комфорт 1015.7 1008.9
11 11.07 З 3-5
{5}
н/о н/о +20.3 +14.4 69 +23 +23 комфорт 1015.7 1008.9
12 11.07 З 5
{9}
25 км 3/3 600 м
[Cu hum Cc]
+20.9 +15.2 70 +24 +30 комфорт 1015.9 1009.1
13 11.07 З 3-4
{5}
н/о н/о +20.2 +15.2 73 +23 +23 комфорт 1015.8 1009.0
14 11.07 З 3-4
{4}
н/о н/о +20.1 +15.5 75 +23 +23 комфорт 1015.8 1009.0
15 11.07 З 4
{8}
25 км 3/3 600 м
[Cu hum Cc]
+20.9 +15.7 72 +24 +31 комфорт 1015.7 1008.9
16 11.07 З 2-3
{4}
н/о н/о +20.5 +15.3 72 +24 +24 комфорт 1015.7 1008.9
17 11.07 З 2-3
{4}
н/о н/о +19.9 +14.9 73 +23 +23 комфорт 1015.6 1008.8
18 11.07 З 5
{7}
25 км 5/0
[Ac trans Cc]
+19.3 +14.8 75 +21 +22 комфорт 1015.5 1008.7 +16.8 +21.2
19 11.07 З 2-3
{4}
н/о н/о +18.1 +14.0 77 +19 +19 1015.6 1008.8
20 11.07 З 1-2
{3}
н/о н/о +17.0 +13.9 82 +18 +18 1015.5 1008.6
21 11.07 ЮЗ 2-2
{4}
н/о н/о +16.9 +13.8 82 +17 +17 1015.8 1008.9
22 11.07 ЮЗ 1-1
{2}
н/о н/о +16.9 +13.8 82 +18 +18 1015.9 1009.0
23 11.07 ЮЗ 1-1
{2}
н/о н/о +16.9 +13.8 82 +18 +18 1016.1 1009.2
00 12.07 Ю 2-1
{2}
н/о н/о +16.8 +14.3 85 +17 +17 1015.6 1008.7
01 12.07 ЮЗ 1-2
{3}
н/о н/о +15.9 +14.9 94 +17 +17 1015.4 1008.5
02 12.07 ЮЗ 2-2
{2}
н/о н/о +16.0 +15.7 98 +16 +16 1015.3 1008.4 0.2
03 12.07 ЮЗ 3-2
{5}
н/о н/о +16.6 +16.4 99 +16 +16 1015.3 1008.4 0.2
04 12.07 З 2-3
{3}
н/о н/о +16.8 +16.6 99 +17 +17 1015.6 1008.7 0.2
05 12.07 З 2-3
{4}
н/о н/о +16.8 +16.8 100 +17 +17 1015.8 1008.9
06 12.07 З 4
{6}
3000 м дымка {ливн. осадки, дождь} 10/10 300 м
[Frnb]
+16.7 +16.7 100 +16 +16 1016.3 1009.4 +15.8 +19.3 0.4
07 12.07 З 2-4
{4}
н/о н/о +17.1 +16.9 99 +17 +17 1016.9 1010.0
08 12.07 СЗ 2-3
{3}
н/о н/о +18.1 +17.3 95 +19 +19 1017.3 1010.5
09 12.07 СЗ 4-4
{7}
н/о н/о +18.7 +16.7 88 +20 +20 1017.8 1011.0
10 12.07 З 3-4
{4}
н/о н/о +19.6 +16.8 84 +22 +22 комфорт 1018.3 1011.5
11 12.07 З 3-4
{4}
н/о н/о +20.6 +16.6 78 +24 +24 комфорт 1018.6 1011.8
12 12.07 З 5
{8}
18 км 5/5 600 м
[Sc]
+20.6 +16.4 77 +24 +28 комфорт 1019.1 1012.3
13 12.07 СЗ 3-4
{5}
н/о н/о +20.5 +15.9 75 +24 +24 комфорт 1019.3 1012.5
14 12.07 СЗ 3-4
{4}
н/о н/о +20.6 +16.0 75 +24 +24 комфорт 1019.6 1012.8
15 12.07 СЗ 4
{8}
15 км 3/3 600 м
[Cu Sc]
+20.9 +16.1 74 +24 +30 комфорт 1019.9 1013.1
16 12.07 СЗ 2-3
{4}
н/о н/о +20.4 +16.0 76 +24 +24 комфорт 1019.9 1013.1
17 12.07 СЗ 2-3
{4}
н/о н/о +20.1 +15.9 77 +23 +23 комфорт 1019.8 1013.0
18 12.07 СЗ 3
{8}
25 км 1/1 300 м
[Cu hum]
+19.8 +15.6 77 +22 +24 комфорт 1020.3 1013.5 +16.7 +21.2
19 12.07 СЗ 2-3
{3}
н/о н/о +18.8 +15.1 79 +21 +21 комфорт 1020.8 1013.9
20 12.07 З 2-3
{3}
н/о н/о +17.3 +14.8 85 +18 +18 1021.0 1014.1
21 12.07 З 3-2
{6}
н/о н/о +16.3 +14.7 90 +16 +16 1021.3 1014.4
22 12.07 СЗ 2-3
{3}
н/о н/о +16.3 +14.7 90 +17 +17 1021.7 1014.8
23 12.07 С 3-4
{4}
н/о н/о +16.2 +14.6 90 +16 +16 1021.7 1014.8
00 13.07 С 5-4
{9}
н/о н/о +16.0 +14.7 92 +15 +15 1021.8 1014.9
01 13.07 С 2-4
{4}
н/о н/о +15.6 +13.8 89 +15 +15 1022.0 1015.1
02 13.07 С 2-2
{4}
н/о н/о +15.2 +13.9 92 +15 +15 1022.0 1015.1
03 13.07 С 3-3
{6}
н/о н/о +15.0 +13.7 92 +14 +14 1022.3 1015.3
04 13.07 С 1-2
{3}
н/о н/о +14.7 +13.7 94 +15 +15 1022.1 1015.1
05 13.07 С 1-2
{2}
н/о н/о +15.0 +14.0 94 +15 +15 1022.3 1015.3
06 13.07 С 3
{5}
25 км 1/0
[Ci fib]
+16.9 +14.9 88 +17 +18 1022.5 1015.6 +14.5 +20.0
07 13.07 СВ 2-3
{4}
н/о н/о +17.7 +15.1 85 +18 +18 1022.7 1015.8
08 13.07 СВ 2-3
{4}
н/о н/о +18.7 +15.2 80 +20 +20 1023.1 1016.2
09 13.07 СВ 5-4
{7}
н/о н/о +19.2 +15.1 77 +21 +21 комфорт 1023.2 1016.3
10 13.07 СВ 3-3
{4}
н/о н/о +19.5 +15.2 76 +22 +22 комфорт 1023.1 1016.2
11 13.07 СВ 3-4
{4}
н/о н/о +20.2 +15.2 73 +23 +23 комфорт 1023.3 1016.5
12 13.07 СВ 4
{7}
18 км 8/4 600 м
[Cu Sc Ac und]
+19.8 +15.0 74 +22 +26 комфорт 1023.4 1016.6
14 13.07 СВ 2-2
{3}
н/о н/о +19.7 +14.9 74 +22 +22 комфорт 1023.3 1016.5
15 13.07 СВ 2-3
{3}
н/о н/о +20.5 +15.1 71 +24 +24 комфорт 1023.0 1016.2
17 13.07 СВ 2-3
{3}
н/о н/о +18.7 +14.8 78 +20 +20 1022.5 1015.6
18 13.07 СВ 4
{6}
25 км 1/0
[Ci fib]
+17.8 +14.7 82 +18 +19 1022.3 1015.4 +16.9 +21.0
19 13.07 СВ 2-3
{3}
н/о н/о +17.4 +14.9 85 +18 +18 1022.3 1015.4
20 13.07 С 2-3
{3}
н/о н/о +16.1 +14.3 89 +16 +16 1022.3 1015.4
21 13.07 С 4-3
{6}
н/о н/о +15.5 +14.5 94 +15 +15 1022.3 1015.4
22 13.07 СВ 2-2
{3}
н/о н/о +15.6 +14.8 95 +16 +16 1022.3 1015.4
23 13.07 штиль 0-1
{2}
н/о н/о +15.0 +14.2 95 +15 +15 1022.6 1015.6
00 14.07 С 2-2
{3}
н/о н/о +15.2 +14.7 97 +15 +15 1022.3 1015.4
01 14.07 С 2-3
{3}
н/о н/о +15.4 +14.8 96 +15 +15 1021.8 1014.9 0.2
02 14.07 СВ 3-4
{4}
н/о н/о +15.7 +14.9 95 +15 +15 1021.3 1014.4
03 14.07 СВ 5-4
{7}
н/о н/о +15.6 +15.0 96 +14 +14 1020.8 1013.9 0.2
04 14.07 СВ 2-3
{4}
н/о н/о +15.5 +14.9 96 +15 +15 1020.6 1013.7
05 14.07 СВ 2-3
{3}
н/о н/о +15.6 +15.1 97 +15 +15 1020.8 1013.9
06 14.07 СВ 4
{6}
н/о н/о +16.9 +15.2 90 +16 +16 1020.6 1013.7 +14.9 +17.9
07 14.07 СВ 2-3
{3}
н/о н/о +18.0 +15.4 85 +19 +19 1020.8 1013.9
08 14.07 В 3-4
{4}
н/о н/о +17.5 +15.1 86 +18 +18 1021.1 1014.2
09 14.07 В 4
{9}
8000 м 10/0 2000 м
[Ac As]
+18.1 +15.7 86 +18 +21 1021.1 1014.2
10 14.07 В 3-5
{5}
н/о н/о +21.0 +15.3 70 +25 +25 комфорт 1021.1 1014.3
11 14.07 СВ 3-5
{5}
н/о н/о +21.3 +15.8 71 +25 +25 комфорт 1021.0 1014.2
12 14.07 СВ 7
{12}
8000 м 10/0 2000 м
[Ac As]
+20.9 +15.4 71 +24 +25 комфорт 1021.1 1014.3
13 14.07 СВ 5-6
{6}
н/о н/о +20.2 +15.6 75 +23 +23 комфорт 1021.1 1014.3
14 14.07 СВ 4-5
{6}
н/о н/о +20.1 +15.9 77 +23 +23 комфорт 1021.0 1014.2
15 14.07 СВ 7-5
{9}
18 км 1/1 1000 м
[Cu hum]
+19.8 +15.6 77 +22 +24 комфорт 1021.0 1014.2
16 14.07 СВ 4-5
{5}
н/о н/о +19.4 +14.9 75 +21 +21 комфорт 1020.9 1014.1
17 14.07 СВ 3-4
{5}
н/о н/о +18.9 +15.4 80 +20 +20 1021.3 1014.4
18 14.07 СВ 5
{7}
25 км 1/0
[Cs]
+18.4 +15.5 83 +19 +20 1021.2 1014.3 +17.0 +22.4
19 14.07 СВ 3-4
{4}
н/о н/о +17.7 +15.1 85 +18 +18 1021.1 1014.2
20 14.07 СВ 2-4
{4}
н/о н/о +17.0 +14.8 87 +17 +17 1021.1 1014.2
21 14.07 В 5-5
{10}
н/о н/о +17.0 +13.3 79 +16 +16 1021.2 1014.3
22 14.07 В 3-5
{6}
н/о н/о +16.7 +13.0 79 +17 +17 1021.3 1014.4
23 14.07 В 2-4
{5}
н/о н/о +16.2 +13.1 82 +16 +16 1021.6 1014.7
00 15.07 В 5-5
{9}
н/о н/о +15.9 +13.2 84 +15 +15 1021.6 1014.7
01 15.07 В 2-4
{4}
н/о н/о +15.9 +13.0 83 +16 +16 1021.5 1014.6
02 15.07 В 2-2
{4}
н/о н/о +15.5 +11.9 79 +16 +16 1021.2 1014.3
03 15.07 В 4-3
{6}
н/о н/о +15.4 +12.9 85 +15 +15 1021.1 1014.2
04 15.07 В 3-4
{4}
н/о н/о +15.4 +13.8 90 +15 +15 1021.1 1014.2
05 15.07 В 3-4
{5}
н/о н/о +15.6 +13.8 89 +15 +15 1021.2 1014.3
06 15.07 В 5
{8}
22 км ясно +16.9 +14.2 84 +16 +17 1021.4 1014.5 +15.1 +18.5
07 15.07 В 3-5
{6}
н/о н/о +18.2 +14.3 78 +19 +19 1021.6 1014.7
08 15.07 В 3-5
{5}
н/о н/о +19.2 +12.9 67 +21 +21 комфорт 1021.9 1015.0
09 15.07 В 5
{9}
30 км 5/5 300 м
[Cu hum Ci sp]
+19.5 +13.7 69 +21 +23 комфорт 1021.8 1015.0
10 15.07 СВ 2-4
{5}
н/о н/о +20.0 +13.9 68 +23 +23 комфорт 1021.7 1014.9
11 15.07 СВ 4-5
{5}
н/о н/о +20.0 +13.2 65 +22 +22 комфорт 1021.7 1014.9
12 15.07 СВ 7
{9}
30 км 3/3 600 м
[Cu hum Ci fib]
+20.3 +13.0 63 +22 +26 комфорт 1021.4 1014.6
13 15.07 СВ 4-6
{6}
н/о н/о +19.8 +12.8 64 +21 +21 комфорт 1021.2 1014.4
14 15.07 СВ 4-5
{6}
н/о н/о +19.6 +13.3 67 +21 +21 комфорт 1021.3 1014.5
15 15.07 СВ 6
{9}
30 км 3/3 600 м
[Cu hum Ci fib]
+19.5 +14.1 71 +21 +24 комфорт 1021.4 1014.6
16 15.07 СВ 3-4
{5}
н/о н/о +18.5 +14.6 78 +19 +19 1021.1 1014.2
17 15.07 СВ 3-4
{5}
н/о н/о +17.9 +14.2 79 +18 +18 1020.9 1014.0
18 15.07 СВ 6
{8}
30 км 4/0
[Ci sp]
+16.9 +13.4 80 +16 +17 1020.7 1013.8 +16.8 +20.9
19 15.07 В 2-3
{5}
н/о н/о +16.5 +13.4 82 +17 +17 1020.8 1013.9
20 15.07 В 2-3
{4}
н/о н/о +15.4 +13.1 86 +16 +16 1020.8 1013.9
21 15.07 В 2-2
{4}
н/о н/о +14.8 +12.3 85 +15 +15 1021.0 1014.0
22 15.07 В 1-2
{2}
н/о н/о +14.6 +11.7 83 +15 +15 1020.9 1013.9
23 15.07 В 1-1
{2}
н/о н/о +14.1 +11.6 85 +15 +15 1021.0 1014.0
00 16.07 В 2-1
{2}
н/о н/о +13.9 +11.9 88 +14 +14 1020.7 1013.7
01 16.07 В 1-2
{2}
н/о н/о +13.8 +12.4 91 +14 +14 1020.3 1013.3
02 16.07 В 1-2
{2}
н/о н/о +13.5 +12.2 92 +14 +14 1020.1 1013.1
03 16.07 В 2-2
{3}
н/о н/о +13.5 +12.7 95 +13 +13 1019.8 1012.8
04 16.07 ЮВ 1-1
{2}
н/о н/о +13.7 +12.8 94 +15 +15 1019.9 1012.9 0.2
05 16.07 В 1-1
{2}
н/о н/о +13.6 +12.7 94 +14 +14 1019.9 1012.9
06 16.07 В 2
{3}
18 км 3/0
[Ci fib]
+16.1 +13.8 86 +16 +18 1019.9 1013.0 +13.4 +17.0 0.2
07 16.07 В 1-2
{2}
н/о н/о +17.0 +13.9 82 +18 +18 1019.9 1013.0
08 16.07 СВ 1-2
{2}
н/о н/о +17.5 +14.4 82 +19 +19 1020.1 1013.2
09 16.07 СВ 4
{5}
20 км 1/1 600 м
[Cu hum Ci]
+18.8 +14.7 77 +20 +27 1019.8 1013.0
10 16.07 СВ 2-3
{3}
н/о н/о +19.2 +14.7 75 +21 +21 комфорт 1019.6 1012.8
11 16.07 СВ 2-3
{3}
н/о н/о +19.0 +14.7 76 +21 +21 комфорт 1019.6 1012.8
12 16.07 СВ 3
{6}
15 км 4/1 600 м
[Cu hum Ci sp]
+19.2 +14.5 74 +21 +33 комфорт 1019.6 1012.8
13 16.07 СВ 2-3
{3}
н/о н/о +19.6 +14.4 72 +22 +22 комфорт 1019.5 1012.7
14 16.07 СВ 2-3
{3}
н/о н/о +19.9 +14.0 69 +23 +23 комфорт 1019.5 1012.7
15 16.07 СВ 4
{5}
18 км 4/4 600 м
[St Ci fib]
+19.3 +14.5 74 +21 +26 комфорт 1019.2 1012.4
16 16.07 СВ 2-3
{3}
н/о н/о +19.3 +15.0 76 +21 +21 комфорт 1018.6 1011.8
17 16.07 СВ 2-2
{3}
н/о н/о +18.7 +14.8 78 +20 +20 1018.5 1011.7
18 16.07 СВ 3
{5}
12 км 3/0
[Ci sp]
+18.1 +15.0 82 +19 +20 1018.7 1011.8 +16.0 +20.7
19 16.07 СВ 1-2
{2}
н/о н/о +16.8 +14.8 88 +18 +18 1018.6 1011.7
20 16.07 СВ 1-1
{2}
н/о н/о +15.8 +14.3 91 +17 +17 1018.6 1011.7
21 16.07 СВ 2-1
{2}
н/о н/о +15.0 +14.4 96 +15 +15 1018.7 1011.8
22 16.07 СВ 1-1
{1}
н/о н/о +14.8 +14.0 95 +15 +15 1018.7 1011.8
23 16.07 СВ 2-2
{2}
н/о н/о +14.7 +13.9 95 +15 +15 1018.5 1011.6
00 17.07 СВ 2-2
{3}
н/о н/о +14.6 +13.8 95 +14 +14 1018.3 1011.4
01 17.07 СВ 2-2
{2}
н/о н/о +14.6 +14.0 96 +14 +14 1017.9 1011.0
02 17.07 СВ 1-2
{2}
н/о н/о +14.6 +14.0 96 +15 +15 1017.4 1010.5 0.2
03 17.07 штиль 0
{3}
н/о н/о +14.3 +14.0 98 +14 +14 1017.2 1010.3 0.2
04 17.07 ЮЗ 1-1
{1}
н/о н/о +14.2 +14.0 99 +15 +15 1016.9 1010.0
05 17.07 ЮЗ 1-1
{1}
н/о н/о +13.6 +13.4 99 +14 +14 1017.0 1010.0
06 17.07 ЮЗ 2
{3}
н/о н/о +13.7 +13.5 99 +13 +13 1016.9 1009.9 +13.5 +18.2
07 17.07 ЮЗ 1-2
{2}
н/о н/о +15.7 +14.9 95 +16 +16 1017.1 1010.2
08 17.07 ЮЗ 1-2
{2}
н/о н/о +17.3 +14.2 82 +18 +18 1017.2 1010.3
09 17.07 З 4
{5}
10 км 6/1 600 м
[Cu Sc Cs]
+17.9 +14.2 79 +18 +24 1016.9 1010.1
10 17.07 З 2-3
{4}
н/о н/о +18.8 +14.7 77 +20 +20 1016.8 1010.0
11 17.07 З 2-4
{4}
н/о н/о +18.8 +13.4 71 +20 +20 1017.0 1010.2
12 17.07 З 4-3
{7}
н/о н/о +19.1 +13.5 70 +20 +20 1016.7 1009.9
13 17.07 З 3-4
{4}
н/о н/о +19.6 +12.8 65 +22 +22 комфорт 1016.5 1009.7
14 17.07 З 3-4
{5}
н/о н/о +20.1 +13.8 67 +23 +23 комфорт 1016.6 1009.8
15 17.07 З 6
{11}
15 км 6/3 600 м
[Cu Sc Cc]
+20.0 +13.9 68 +22 +25 комфорт 1016.4 1009.6
16 17.07 З 6-5
{10}
н/о н/о +20.5 +15.3 72 +23 +23 комфорт 1016.1 1009.3
17 17.07 З 5-5
{10}
н/о н/о +20.1 +14.5 70 +22 +22 комфорт 1015.9 1009.1
18 17.07 З 5-5
{10}
н/о н/о +19.3 +14.1 72 +20 +20 1015.6 1008.8 +13.6 +21.1
19 17.07 З 5
{10}
н/о н/о +18.1 +14.4 79 +18 +18 1015.4 1008.6
20 17.07 З 6
{10}
н/о н/о +16.7 +14.3 86 +16 +16 1015.5 1008.6
21 17.07 З 6-5
{9}
н/о н/о +16.1 +13.9 87 +15 +15 1016.0 1009.1
22 17.07 ЮЗ 3-4
{5}
н/о н/о +16.0 +13.7 86 +16 +16 1015.5 1008.6
23 17.07 ЮЗ 4-3
{7}
н/о н/о +15.5 +13.5 88 +14 +14 1015.3 1008.4
00 18.07 ЮЗ 5-5
{10}
н/о н/о +15.4 +13.9 91 +14 +14 1014.8 1007.9
01 18.07 ЮЗ 3-5
{5}
н/о н/о +15.8 +14.3 91 +15 +15 1014.2 1007.3
02 18.07 ЮЗ 3-5
{5}
н/о н/о +16.5 +14.9 90 +16 +16 1013.6 1006.7
03 18.07 ЮЗ 6-5
{10}
н/о н/о +17.0 +15.3 90 +16 +16 1013.1 1006.3
04 18.07 ЮЗ 5
{11}
н/о н/о +16.8 +16.2 96 +16 +16 1013.0 1006.2 0.2
05 18.07 ЮЗ 5
{9}
н/о н/о +16.8 +16.5 98 +16 +16 1012.8 1006.0 1
06 18.07 З 5
{9}
9000 м осадки на расстоянии 10/10 300 м
[Sc]
+17.0 +16.7 98 +16 +16 1013.2 1006.4 +15.3 +19.2 1
07 18.07 З 3-4
{5}
н/о н/о +17.5 +17.0 97 +18 +18 1013.6 1006.8
08 18.07 З 3-4
{5}
н/о н/о +17.9 +16.6 92 +18 +18 1013.8 1007.0

 

Местоположение метеостанции Перрос-Гирек (Франция): широта 48.83 долгота -3.47 высота над уровнем моря 58 м.

В архиве по умолчанию представлена погода в Перрос-Гиреке за последнюю неделю. Архивные данные за месяц целиком и за предыдущие месяцы, начиная с января 2011 года, Вы можете получить, выбрав интересующий диапазон дат из раскрывающегося списка и нажав кнопку "Ввод!".


*Определитесь, кто Вы:
робот инопланетянин человек

Внимание! Время в таблицах - всемирное. Для получения местного времени необходимо прибавить поправку, которая равна 1 ч.

Смотрите также архив погоды в соседних городах и на ближайших метеорологических станциях:

Погода в Ланьоне (Франция) (9 км)
Погода в Иль-де-Ба (Франция) (41 км)
Погода в Сен-Бриё аэропорту (Франция) (56 км)
Погода в Ландивизио (Франция) (61 км)
Погода в Бриньоган-Пляже (Франция) (65 км)
Погода в Бресте (Франция) (82 км)
Погода в Аэропорту Гернси (Великобритания) (92 км)
Погода в Плудальмезо (Франция) (93 км)
Погода в Аэропорту Джерси (Великобритания) (102 км)
Погода в Динаре (Франция) (106 км)

Пояснения к столбцам:

Ветер - указаны скорость ветра в м/с - средняя за 10 мин, порывы в срок и между сроками (в фигурных скобках) и направление, откуда дует ветер: С - северный, СВ - северо-восточный, В - восточный, ЮВ - юго-восточный, Ю - южный, ЮЗ - юго-западный, З - западный, СЗ - северо-западный.
Видимость - горизонтальная дальность видимости в метрах или километрах. При видимости от 1 до 10 км при отсутствии осадков обычно наблюдается дымка, при ухудшении видимости до 1 км и менее - туман. В сухую погоду видимость может ухудшаться дымом, пылью или мглою.
Явления - указаны атмосферные явления, наблюдавшиеся в срок или в последний час перед сроком; фигурными скобками обозначены явления, наблюдавшиеся между сроками (за 1-3 часа до срока); квадратными скобками обозначены град или гололедные отложения с указанием их диаметра в мм.
Облачность - указаны через наклонную черту общая и нижняя облачность в баллах и высота нижней границы облаков в метрах; квадратными скобками обозначены формы облаков: Ci - перистые, Cs - перисто-слоистые, Cc - перисто-кучевые, Ac - высококучевые, As - высокослоистые, Sc - слоисто-кучевые, Ns - слоисто-дождевые, Cu - кучевые, Cb - кучево-дождевые. Подробнее классификацию облаков см. в Атласе облаков (PDF).
T - Температура воздуха - температура, измеренная на высоте 2 м над землей.
Td - Температура точки росы - температура, при понижении до которой содержащийся в воздухе водяной пар достигнет насыщения.
f - Относительная влажность воздуха - влажноcть воздуха, измеренная на высоте 2 м над землей.
Te - Эффективная температура - температура, которую ощущает одетый по сезону человек в тени. Характеристика душности погоды. При расчете учитывается влияние влажности воздуха и скорости ветра на теплоощущения человека.
Tes - Эффективная температура на солнце - температура, которую ощущает человек, с поправкой на солнечный нагрев. Характеристика знойности погоды. Зависит от высоты солнца над горизонтом, облачности и скорости ветра. Ночью, в пасмурную погоду, а также при ветре 12 м/с и более поправка равна нулю.
P - Атмосферное давление - приведенное к уровню моря атмосферное давление.
Po - Атмосферное давление - измеренное на уровне метеостанции атмосферное давление.
Tmin - Минимальная температура - минимум температуры воздуха на высоте 2 м над землей.
Tmax - Максимальная температура - максимум температуры воздуха на высоте 2 м над землей.
R - Количество осадков - Количество выпавших осадков за период времени, мм. При наведении курсора мыши на число - период времени, за который выпало указанное количество осадков.
R24 - Количество осадков - Количество выпавших осадков за 24 часа, мм.
S - Снежный покров - Высота снежного покрова, см. При наведении курсора мыши на число - состояние снежного покрова и степень покрытия местности в баллах.